Regional Weather Roundup
Issued by NWS

Home | Current Version | Previous Version | Graphics & Text | Print | Product List | Glossary On
Versions: 1 2 3 4 5 6 7 8 9 10 11 12 13 14 15 16 17 18 19 20 21 22 23 24 25 26 27 28 29 30 31 32 33 34 35 36 37 38 39 40 41 42 43 44 45 46 47 48 49 50
030
ASUS43 KOAX 240302
RWRNE

WEATHER ROUNDUP FOR NEBRASKA
NATIONAL WEATHER SERVICE OMAHA NE
900 PM CST THU FEB 23 2017

NOTES: SATELLITE DATA IS BEING USED TO AUGMENT CLOUD COVER ABOVE
       12000 FEET.
       "FAIR" INDICATES FEW OR NO CLOUDS BELOW 12,000 FEET WITH NO
       SIGNIFICANT WEATHER AND/OR OBSTRUCTIONS TO VISIBILITY.

  * THESE STATIONS DO NOT REPORT WEATHER SUCH AS RAIN...SNOW OR FOG.

NEZ001>004-019>022-054>056-240400-
NEBRASKA PANHANDLE

CITY           SKY/WX    TMP DP  RH WIND       PRES   REMARKS
SCOTTSBLUFF    LGT SNOW  23  19  85 N6        29.89R FOG     WCI  16
ALLIANCE       LGT SNOW  22  19  89 N23       29.85R VSB 1   WCI   6
CHADRON        LGT SNOW  25  22  88 NE14      29.93R FOG     WCI  13
KIMBALL        LGT SNOW  20  20  99 N10       29.81S WCI   9
SIDNEY         CLOUDY    21  18  88 N15       29.81S FOG     WCI   8
$$

NEZ057>060-069>072-079>082-240400-
SOUTHWEST NEBRASKA

CITY           SKY/WX    TMP DP  RH WIND       PRES   REMARKS
NORTH PLATTE   LGT SNOW  26  23  88 N8        29.77S FOG     WCI  18
IMPERIAL       LGT SNOW  25  21  85 N17       29.78R FOG     WCI  12
LEXINGTON      LGT SNOW  29  26  88 N16       29.73S WCI  17
MCCOOK         PTCLDY    27  25  92 N15       29.74R WCI  15
OGALLALA       LGT SNOW  26  23  89 N12       29.81R WCI  15
$$

NEZ005>010-023>029-035>040-094-240400-
NORTH CENTRAL NEBRASKA

CITY           SKY/WX    TMP DP  RH WIND       PRES   REMARKS
VALENTINE      CLOUDY    24  20  84 N22G30    29.87R FOG     WCI   9
AINSWORTH      CLOUDY    25  24  96 N25       29.83R WCI   9
BROKEN BOW     LGT SNOW  27  25  92 N18       29.74R VSB 3/4 WCI  14
O`NEILL        CLOUDY    28  26  96 N25G33    29.75F WCI  13
ORD            LGT SNOW  28  24  85 N20       29.73R FOG     WCI  15
THEDFORD       CLOUDY    25  23  93 N17G25    29.81R WCI  11
$$

NEZ041-046>049-061>064-073>077-083>087-240400-
SOUTH CENTRAL NEBRASKA

CITY           SKY/WX    TMP DP  RH WIND       PRES   REMARKS
GRAND ISLAND   LGT SNOW  30  29  96 N16       29.69R FOG     WCI  19
AURORA         CLOUDY    31  30  96 N17G24    29.66R WCI  19
HASTINGS       CLOUDY    31  28  89 N16       29.68R WCI  20
HEBRON         CLOUDY    34  33  96 NE16G24   29.58F WCI  23
HOLDREGE       CLOUDY    30  27  91 N14G22    29.70R WCI  19
KEARNEY *      CLOUDY    30  25  80 N15       29.71R WCI  19
YORK           RAIN      32  32 100 NE22      29.61F WCI  19
$$

NEZ011>018-030>034-042>045-240400-
NORTHEAST NEBRASKA

CITY           SKY/WX    TMP DP  RH WIND       PRES   REMARKS
NORFOLK        LGT SNOW  29  26  89 NE17G25   29.72R FOG     WCI  17
ALBION         LGT SNOW  31  28  88 N13G21    29.71S VSB 3/4 WCI  21
BLAIR          LGT RAIN  34  33  95 N16G28    29.59F WCI  24
FREMONT        LGT SNOW  33  33 100 N10G18    29.64F WCI  24
TEKAMAH        LGT SNOW  33  30  88 N21       29.67R FOG     WCI  21
WAYNE          LGT SNOW  30  30  98 NE24      29.71F VSB 3/4 WCI  16
$$

NEZ050>053-065>068-078-088>093-240400-
SOUTHEAST NEBRASKA

CITY           SKY/WX    TMP DP  RH WIND       PRES   REMARKS
LINCOLN        LGT SNOW  33  32  96 N17       29.63R FOG     WCI  22
OMAHA EPPLEY   RAIN      36  32  85 N21G28    29.57F FOG     WCI  25
BEATRICE       HVY RAIN  37  36  94 N20G26    29.56F WCI  27
FALLS CITY     CLOUDY    46  39  76 NE13G21   29.45F
NEBRASKA CITY  LGT RAIN  40  39  97 NE18G25   29.51F WCI  31
PLATTSMOUTH    LGT RAIN  38  36  90 N12G21    29.54F WCI  31
$$

NEZ044-045-051>053-067-240400-
OMAHA AREA

CITY           SKY/WX    TMP DP  RH WIND       PRES   REMARKS
OMAHA EPPLEY   RAIN      36  32  85 N21G28    29.57F FOG     WCI  25
BLAIR          LGT RAIN  34  33  95 N16G28    29.59F WCI  24
FREMONT        LGT SNOW  33  33 100 N10G18    29.64F WCI  24
MILLARD        LGT RAIN  38  36  91 N7G16     29.61R WCI  33
OFFUTT AFB     CLOUDY    37  36  93 N15G25    29.55F WCI  28
PLATTSMOUTH    LGT RAIN  38  36  90 N12G21    29.54F WCI  31
WAHOO          LGT SNOW  33  32  96 N18G24    29.63R WCI  22
$$




USA.gov is the U.S. government's official web portal to all federal, state and local government web resources and services.